Regional Weather Roundup
Issued by NWS Jackson, KY

Home | Current Version | Previous Version | Text Only | Print | Product List | Glossary Off
Versions: 1 2 3 4 5 6 7 8 9 10 11 12 13 14 15 16 17 18 19 20 21 22 23 24 25 26 27 28 29 30 31 32 33 34 35 36 37 38 39 40 41 42 43 44 45 46 47 48 49 50

539
ASUS43 KJKL 260610
RWRJKL

EAST KENTUCKY HOURLY WEATHER ROUNDUP
NATIONAL WEATHER SERVICE JACKSON KY
200 AM EDT MON SEP 26 2016

NOTE: "FAIR" INDICATES FEW OR NO CLOUDS BELOW 12,000 FEET WITH
NO SIGNIFICANT WEATHER AND/OR OBSTRUCTIONS TO VISIBILITY.

* THESE REPORTS ARE NOT UNDER NWS QUALITY CONTROL AND MAY NOT
  REPORT WEATHER SUCH AS PRECIPITATION AND FOG.

KYZ079-080-083-085-087-088-110-112-115-119-120-260700
...EASTERN KENTUCKY...

CITY           SKY/WX    TMP DP  RH WIND       PRES   REMARKS
JACKSON        CLEAR     72  64  76 S3        30.05F
6HR MIN TEMP:  72; 6HR MAX TEMP:  77;

LONDON         CLEAR     66  63  90 CALM      30.05S
6HR MIN TEMP:  66; 6HR MAX TEMP:  78;

SOMERSET*      CLEAR     64  64 100 CALM      30.05S
MONTICELLO*    CLEAR     63  63 100 W3        30.06S
6HR MIN TEMP:  63; 6HR MAX TEMP:  74;

WILLIAMSBURG*  CLEAR     66  66 100 CALM      30.05F
MIDDLESBORO*   PTCLDY    66  66  99 CALM      30.08F
6HR MIN TEMP:  66; 6HR MAX TEMP:  75;

HARLAN APT*    PTCLDY    64  63  94 CALM      30.09F
PIKE CO APT*     N/A     69  67  94 S5        30.06F
BIG SANDY APT* CLEAR     67  66  95 CALM      30.05S
6HR MIN TEMP:  66; 6HR MAX TEMP:  76;

MOREHEAD APT*  PTCLDY    70  64  83 CALM      30.05S
ASHLAND*       CLEAR     64  63  94 CALM      30.01S THUNDER
$$

KYZ035-036-041-042-044-050-067-078-099-260700
...CENTRAL KENTUCKY...

CITY           SKY/WX    TMP DP  RH WIND       PRES   REMARKS
MT STERLING*   CLEAR     64  64 100 CALM      30.05S FOG
FLEMING/MASON* CLEAR     67  63  85 CALM      30.04S
DANVILLE*      CLEAR     64  63  94 CALM      30.05S
LEXINGTON      CLEAR     72  65  78 S3        30.03F
6HR MIN TEMP:  72; 6HR MAX TEMP:  82;

FRANKFORT      CLEAR     68  64  87 CALM      30.01F
6HR MIN TEMP:  67; 6HR MAX TEMP:  80;

LOUISVILLE     PTCLDY    73  67  81 SE6       29.98F
6HR MIN TEMP:  73; 6HR MAX TEMP:  85;

LEBANON*         N/A     68  66  94 CALM      30.03F
GLASGOW*       CLEAR    N/A N/A N/A CALM      30.03S HAZE
BOWLING GREEN  CLEAR     69  67  93 CALM      30.02F
6HR MIN TEMP:  68; 6HR MAX TEMP:  80;

$$

KYZ091>093-OHZ055-061-077-WVZ005-015-034-035-042-260700
...SOUTHERN OHIO/WEST VIRGINIA...

CITY           SKY/WX    TMP DP  RH WIND       PRES   REMARKS
COVINGTON      CLEAR     70  64  81 S6        30.00F
COLUMBUS       CLEAR     63  55  75 CALM      30.01F
DAYTON         CLEAR     67  62  84 S7        30.01F
WILMINGTON     CLEAR     67  62  84 SE5       30.01F
HUNTINGTON     CLEAR     66  63  90 CALM      30.02F
CHARLESTON     CLEAR     65  59  81 CALM      30.04S
PINEVILLE*     CLEAR     63  60  90 MISG      30.15S FOG
BECKLEY        PTCLDY    65  63  93 SE10      30.13F
BLUEFIELD      PTCLDY    64  62  93 VRB7      30.17S
LOGAN CO APT*    N/A     68  64  88 CALM      30.06F
$$

VAZ002-007-008-TNZ017-027-036-066-071-260700
...SOUTHWEST VIRGINIA/EAST TENNESSEE...

CITY           SKY/WX    TMP DP  RH WIND       PRES   REMARKS
WISE*          CLEAR     70  55  60 S6        30.15F
JONESVILLE*      N/A     64  64 100 CALM      30.11S
ABINGDON*      CLEAR     69  66  89 CALM      30.13S
BRISTOL        CLEAR     66  63  90 CALM      30.10S
MORRISTOWN*    PTCLDY    70  63  78 CALM      30.06S
SEVIERVILLE*   CLEAR     66  63  88 CALM      30.05F
KNOXVILLE      PTCLDY    72  63  73 CALM      30.05S
OAK RIDGE      CLEAR     73  66  78 CALM      30.07S
CROSSVILLE     CLEAR     65  64  97 CALM      30.10F
NASHVILLE      CLEAR     71  65  81 CALM      30.03S
$$

...KEY TO REMARKS...
VSB - VISIBILITY IN MILES
WCI - WIND CHILL INDEX
HX  - HEAT INDEX

$$




USA.gov is the U.S. government's official web portal to all federal, state and local government web resources and services.